User: anonymous
Location: Hickory_CSC
(35.7330°N, 81.3330°W)
Time: 07:58:25
(UTC-04:00)
Language:

Cosmos 1356 Rocket - Orbit

View from above orbital plane
View from above orbital plane
View from above satellite
View from above satellite

Ground track
Ground track

The orbit data is extracted from the following two-line orbital elements,

1 13154U 82039B   14293.37078098  .00002902  00000-0  25001-3 0  4312
2 13154 081.1848 245.4649 0041232 207.2372 152.6685 14.96407804758427
Epoch (UTC): 20 October 2014 08:53:55
Eccentricity: 0.0041232
inclination: 81.1848°
perigee height: 549 km
apogee height: 606 km
right ascension of ascending node: 245.4649°
argument of perigee: 207.2372°
revolutions per day: 14.96407804
mean anomaly at epoch: 152.6685°
orbit number at epoch: 75842

The dashed part of the orbit path shows where the satellite is in the earth's shadow,  

DLR